Regional Weather Roundup
Issued by NWS Newport/Morehead, NC

Current Version | Previous Version | Graphics & Text | Print | Product List | Glossary Off
Versions: 1 2 3 4 5 6 7 8 9 10 11 12 13 14 15 16 17 18 19 20 21 22 23 24 25 26 27 28 29 30 31 32 33 34 35 36 37 38 39 40 41 42 43 44 45 46 47 48 49 50

000
ASUS42 KMHX 061725
RWRMHX
WEATHER ROUNDUP FOR EASTERN NORTH CAROLINA
NATIONAL WEATHER SERVICE NEWPORT/MOREHEAD CITY NC
1200 PM EST SAT FEB 06 2016

NOTE: "FAIR" INDICATES FEW OR NO CLOUDS BELOW 12,000 FEET
WITH NO SIGNIFICANT WEATHER AND/OR OBSTRUCTIONS TO VISIBILITY

NCZ015>017-031-032-045>047-102-103-061800-
NORTH COAST

CITY           SKY/WX    TMP DP  RH WIND       PRES   REMARKS
EDENTON        MOSUNNY   45  31  57 N7        30.41F
ELIZABETH CITY MOSUNNY   44  28  53 N6        30.43F
KITTY HAWK     MOSUNNY   46  29  52 N6        30.41F
MANTEO         PTSUNNY   43  30  59 NE12      30.40F

$$

NCZ045>047-081-094-103-104-061800-
CENTRAL COAST

CITY           SKY/WX    TMP DP  RH WIND       PRES   REMARKS
FRISCO         CLOUDY    46  32  58 NE9G21    30.39F
SWANQUARTER      N/A     46 N/A N/A N6        30.36F

$$

NCZ095-097-098-100-101-061800-
SOUTHERN COAST

CITY           SKY/WX    TMP DP  RH WIND       PRES   REMARKS
BEAUFORT       CLOUDY    45  31  58 N12       30.39F
CEDAR ISLAND     N/A     45 N/A N/A VRB14     30.41F
JACKSONVILLE   PTSUNNY   47  23  38 N10       30.39F
PINEY ISLAND   CLOUDY   N/A N/A N/A N10       30.40F
WILMINGTON     PTSUNNY   48  26  42 NE10      30.38F


$$

NCZ011>013-027>030-043-044-078>080-089-090>093-098-061800-
COASTAL PLAIN

CITY           SKY/WX    TMP DP  RH WIND       PRES   REMARKS
AHOSKIE        MOSUNNY   42  24  47 N8        30.42F
CLINTON        PTSUNNY   45  23  42 NE5       30.41S
ELIZABETHTOWN  MOSUNNY   48  22  36 N6        30.39F
GOLDSBORO      PTSUNNY   45  21  39 N5        30.40F
GREENVILLE     CLOUDY    45  27  49 N6        30.41F
HAVELOCK       CLOUDY    46  27  47 N12       30.41F
KENANSVILLE      N/A     45  18  34 CALM      30.40F
KINSTON        MOSUNNY   45  25  45 N3        30.41F
NEW BERN       CLOUDY    46  25  43 N8        30.42F
RICHLANDS      PTSUNNY   46  21  36 N9        30.38F
ROCKY MOUNT    MOSUNNY   43  22  43 N8        30.43F
WASHINGTON     MOSUNNY   44  27  50 CALM      30.41F
WHITEVILLE     SUNNY     47  22  37 NE8G16    30.38F

$$

AMZ130-135-150-152-154-156-158-170-250-252-270-ANZ085-086-088-633-658-670-061800-
MARINE OBSERVATIONS

STATION/POSITION TIME  TEMP    WIND        PRES    WAVE   SWELL
                       AIR SEA DIR/SP/G            HT/PER HT/PER
                 (UTC) (F)     (DEG/KT/KT) (MB)    (FT/S) (FT/S)
CHESAPEAKE LIGHT 1700   40     350/  6/  8 1031.2
64 E VA BEACH    1650   44 54   20/ 12/ 14 1029.5    5/ 8   5/ 8
DUCK             1700   41 45  360/  8/  9 1029.4
2 E DUCK         1711      45                N/A     4/ 8   2/11
OREGON INLET     1700   44 45  350/  9/ 12 1029.6
13E OREGON INLT  1700      46                N/A     5/13   3/13
HATTERAS CG      1700   44 53   30/ 13/ 18 1028.2
DIAMOND BUOY     1650   48 72   10/ 17/ 21 1028.8    6/11   5/11
CAPE LOOKOUT     NOT AVBL
BEAUFORT LAB     1700   45 50   20/ 11/ 15 1028.2
30 SE NEW RVR IN 1708   48 64              1026.7
30 SE NEW RVR IN 1625      64                N/A     5/ 5   2/11
27 SE WRIGHTSVLE 1708   49 69  360/ 16/ 23 1027.4
5 SE WRIGHTSVLE  1608   44 54   30/ 16/ 21 1029.7
225 S CAPE HAT   1650   62 69   80/  8/ 12   N/A     8/12   8/12
41 SE CHARLESTON 1650   53 65   30/ 21/ 27 1026.0    7/ 6   2/ 9

$$



USA.gov is the U.S. government's official web portal to all federal, state and local government web resources and services.